QPF
0.01 0.01 0.01 0.01 0.01 0.02 0.03 0.05 0.06 0.06 0.03 0.01 0.00 0.00 0.00 0.00 0.00 0.01 0.03 0.05 0.05 0.03 0.01 0.01 0.00 0.00 0.00 0.00 0.00 0.00 0.00 0.00 0.00 0.00 0.00 0.00 0.00 0.03
0.01 0.01 0.01 0.01 0.01 0.01 0.02 0.03 0.04 0.06 0.05 0.02 0.00 0.00 0.00 0.00 0.01 0.03 0.08 0.13 0.12 0.07 0.03 0.01 0.00 0.00 0.00 0.00 0.00 0.00 0.00 0.00 0.00 0.00 0.00 0.00 0.01 0.05
0.00 0.01 0.01 0.01 0.01 0.01 0.02 0.02 0.02 0.04 0.05 0.03 0.01 0.00 0.00 0.00 0.01 0.04 0.08 0.09 0.08 0.07 0.03 0.02 0.01 0.00 0.00 0.00 0.00 0.00 0.00 0.00 0.00 0.00 0.00 0.01 0.04 0.08
0.00 0.00 0.00 0.01 0.01 0.01 0.02 0.02 0.02 0.03 0.05 0.04 0.02 0.00 0.00 0.00 0.02 0.03 0.04 0.04 0.04 0.05 0.03 0.02 0.01 0.00 0.00 0.00 0.00 0.00 0.00 0.00 0.00 0.00 0.01 0.04 0.08 0.13
0.00 0.00 0.00 0.01 0.01 0.02 0.02 0.02 0.02 0.03 0.04 0.04 0.02 0.00 0.00 0.01 0.02 0.04 0.05 0.04 0.03 0.03 0.02 0.02 0.01 0.00 0.00 0.00 0.00 0.00 0.00 0.00 0.00 0.02 0.05 0.09 0.13 0.17
0.00 0.00 0.01 0.02 0.03 0.02 0.02 0.02 0.02 0.01 0.01 0.02 0.01 0.01 0.01 0.02 0.04 0.07 0.08 0.05 0.03 0.02 0.03 0.02 0.02 0.02 0.03 0.08 0.07 0.03 0.01 0.01 0.02 0.05 0.10 0.15 0.20 0.22
0.00 0.01 0.01 0.02 0.03 0.02 0.01 0.01 0.01 0.01 0.02 0.03 0.02 0.02 0.02 0.04 0.05 0.06 0.06 0.05 0.03 0.02 0.02 0.03 0.05 0.15 0.37 0.50 0.33 0.12 0.06 0.05 0.07 0.11 0.16 0.23 0.24 0.22
0.00 0.01 0.01 0.01 0.00 0.00 0.00 0.01 0.01 0.03 0.05 0.05 0.04 0.03 0.03 0.04 0.04 0.05 0.05 0.04 0.04 0.03 0.02 0.05 0.13 0.51 0.88 1.02 0.70 0.27 0.16 0.12 0.12 0.17 0.22 0.25 0.23 0.19
0.00 0.00 0.01 0.00 0.00 0.00 0.00 0.00 0.02 0.05 0.09 0.08 0.06 0.03 0.03 0.04 0.04 0.05 0.04 0.04 0.05 0.03 0.03 0.07 0.24 0.68 0.88 1.03 0.82 0.38 0.26 0.22 0.23 0.27 0.30 0.28 0.24 0.20
0.00 0.00 0.01 0.00 0.00 0.00 0.00 0.00 0.02 0.05 0.07 0.06 0.04 0.03 0.03 0.04 0.05 0.04 0.03 0.03 0.03 0.02 0.03 0.09 0.30 0.62 0.70 0.73 0.77 0.53 0.43 0.41 0.45 0.48 0.48 0.41 0.33 0.25
0.00 0.00 0.00 0.00 0.01 0.01 0.00 0.01 0.04 0.07 0.09 0.08 0.07 0.06 0.06 0.06 0.04 0.02 0.02 0.03 0.03 0.02 0.03 0.09 0.26 0.47 0.53 0.56 0.66 0.65 0.63 0.65 0.68 0.69 0.66 0.50 0.36 0.24
0.00 0.00 0.00 0.01 0.01 0.01 0.01 0.03 0.07 0.11 0.14 0.14 0.11 0.10 0.09 0.07 0.05 0.03 0.03 0.04 0.04 0.03 0.03 0.07 0.17 0.29 0.40 0.50 0.52 0.51 0.56 0.63 0.67 0.69 0.63 0.44 0.25 0.12
0.00 0.00 0.01 0.02 0.02 0.02 0.04 0.07 0.12 0.15 0.19 0.18 0.12 0.08 0.07 0.06 0.06 0.06 0.06 0.05 0.03 0.02 0.01 0.03 0.11 0.19 0.23 0.34 0.41 0.40 0.37 0.38 0.41 0.43 0.38 0.27 0.13 0.04
0.01 0.02 0.04 0.05 0.03 0.04 0.08 0.13 0.16 0.18 0.17 0.15 0.09 0.05 0.04 0.05 0.07 0.07 0.04 0.02 0.01 0.01 0.01 0.02 0.08 0.16 0.16 0.16 0.22 0.25 0.22 0.19 0.18 0.16 0.14 0.10 0.06 0.03
0.03 0.07 0.07 0.04 0.04 0.07 0.14 0.18 0.18 0.17 0.15 0.11 0.07 0.05 0.04 0.03 0.03 0.04 0.02 0.01 0.01 0.01 0.01 0.02 0.06 0.11 0.11 0.08 0.09 0.09 0.09 0.08 0.07 0.06 0.05 0.04 0.02 0.01
0.03 0.05 0.05 0.04 0.07 0.12 0.17 0.19 0.19 0.18 0.16 0.10 0.07 0.06 0.04 0.03 0.02 0.01 0.01 0.01 0.01 0.01 0.01 0.02 0.03 0.05 0.06 0.05 0.05 0.05 0.04 0.05 0.06 0.05 0.04 0.02 0.01 0.00
0.03 0.02 0.02 0.04 0.08 0.13 0.16 0.18 0.18 0.18 0.17 0.11 0.07 0.05 0.05 0.03 0.02 0.02 0.02 0.02 0.02 0.02 0.02 0.02 0.02 0.02 0.03 0.03 0.04 0.04 0.03 0.03 0.03 0.02 0.02 0.01 0.00 0.00
0.03 0.03 0.05 0.08 0.11 0.14 0.16 0.17 0.18 0.18 0.16 0.13 0.10 0.06 0.04 0.03 0.04 0.03 0.03 0.03 0.03 0.03 0.02 0.01 0.01 0.01 0.01 0.02 0.01 0.01 0.01 0.01 0.00 0.00 0.00 0.00 0.00 0.00
0.03 0.05 0.08 0.12 0.15 0.15 0.15 0.16 0.18 0.20 0.18 0.15 0.11 0.08 0.05 0.04 0.05 0.04 0.03 0.03 0.03 0.02 0.01 0.00 0.00 0.00 0.00 0.01 0.00 0.00 0.00 0.00 0.00 0.00 0.00 0.00 0.00 0.00
0.04 0.07 0.10 0.13 0.16 0.18 0.17 0.17 0.18 0.20 0.18 0.14 0.11 0.09 0.07 0.07 0.06 0.05 0.03 0.02 0.01 0.01 0.00 0.00 0.00 0.00 0.00 0.00 0.00 0.00 0.00 0.00 0.00 0.00 0.00 0.00 0.00 0.00
0.04 0.06 0.09 0.12 0.13 0.14 0.15 0.15 0.17 0.18 0.17 0.13 0.11 0.09 0.08 0.07 0.05 0.03 0.02 0.01 0.00 0.00 0.00 0.00 0.00 0.00 0.00 0.00 0.00 0.00 0.00 0.00 0.00 0.00 0.00 0.00 0.00 0.00
0.03 0.05 0.08 0.10 0.10 0.09 0.10 0.11 0.12 0.13 0.12 0.10 0.08 0.07 0.06 0.05 0.03 0.02 0.01 0.00 0.00 0.00 0.00 0.00 0.00 0.00 0.00 0.00 0.00 0.00 0.00 0.00 0.00 0.00 0.00 0.00 0.00 0.00
0.03 0.04 0.05 0.07 0.08 0.08 0.06 0.05 0.06 0.06 0.06 0.05 0.04 0.03 0.03 0.02 0.01 0.01 0.00 0.00 0.00 0.00 0.00 0.01 0.00 0.00 0.00 0.00 0.00 0.00 0.00 0.00 0.00 0.00 0.00 0.00 0.00 0.00
MSLP
1017.49 1017.08 1016.63 1016.17 1015.68 1015.18 1014.67 1014.16 1013.64 1013.13 1012.61 1012.09 1011.57 1011.05 1010.55 1010.09 1009.67 1009.31 1009.05 1008.88 1008.80 1008.81 1008.89 1009.00 1009.13 1009.25 1009.34 1009.42 1009.49 1009.55 1009.62 1009.71 1009.80 1009.88 1009.95 1009.96 1009.91 1009.79
1017.08 1016.59 1016.09 1015.57 1015.05 1014.54 1014.03 1013.53 1013.02 1012.52 1012.01 1011.49 1010.97 1010.47 1009.99 1009.56 1009.19 1008.92 1008.74 1008.66 1008.66 1008.73 1008.82 1008.91 1008.97 1008.99 1008.96 1008.89 1008.80 1008.74 1008.72 1008.75 1008.84 1008.97 1009.10 1009.21 1009.26 1009.25
1016.65 1016.12 1015.57 1015.02 1014.47 1013.95 1013.43 1012.93 1012.44 1011.94 1011.44 1010.93 1010.43 1009.94 1009.50 1009.12 1008.83 1008.63 1008.54 1008.53 1008.58 1008.66 1008.72 1008.71 1008.63 1008.45 1008.20 1007.91 1007.62 1007.38 1007.23 1007.20 1007.29 1007.49 1007.74 1008.02 1008.26 1008.45
1016.27 1015.70 1015.12 1014.54 1013.97 1013.43 1012.90 1012.40 1011.90 1011.40 1010.89 1010.40 1009.91 1009.46 1009.07 1008.75 1008.54 1008.43 1008.41 1008.46 1008.54 1008.58 1008.55 1008.39 1008.10 1007.67 1007.13 1006.55 1006.00 1005.54 1005.24 1005.13 1005.23 1005.52 1005.94 1006.44 1006.95 1007.41
1015.94 1015.35 1014.74 1014.14 1013.55 1012.98 1012.43 1011.90 1011.37 1010.85 1010.34 1009.84 1009.37 1008.96 1008.62 1008.39 1008.27 1008.25 1008.31 1008.41 1008.49 1008.48 1008.33 1007.99 1007.46 1006.74 1005.90 1005.00 1004.16 1003.46 1002.99 1002.80 1002.91 1003.30 1003.91 1004.66 1005.47 1006.26
1015.65 1015.04 1014.41 1013.78 1013.16 1012.56 1011.97 1011.39 1010.82 1010.27 1009.73 1009.22 1008.76 1008.39 1008.12 1007.97 1007.95 1008.03 1008.17 1008.33 1008.42 1008.37 1008.11 1007.60 1006.84 1005.85 1004.72 1003.53 1002.41 1001.49 1000.86 1000.59 1000.71 1001.19 1001.97 1002.97 1004.09 1005.21
1015.36 1014.73 1014.08 1013.42 1012.76 1012.11 1011.47 1010.83 1010.21 1009.60 1009.02 1008.50 1008.05 1007.72 1007.52 1007.46 1007.54 1007.73 1007.97 1008.20 1008.33 1008.26 1007.93 1007.31 1006.39 1005.21 1003.85 1002.44 1001.12 1000.02 999.26 998.92 999.04 999.59 1000.52 1001.73 1003.10 1004.51
1015.03 1014.38 1013.70 1013.01 1012.31 1011.61 1010.91 1010.21 1009.52 1008.86 1008.24 1007.70 1007.27 1006.98 1006.85 1006.89 1007.07 1007.38 1007.73 1008.05 1008.24 1008.21 1007.89 1007.23 1006.25 1004.98 1003.52 1001.99 1000.56 999.37 998.54 998.16 998.28 998.87 999.89 1001.23 1002.76 1004.38
1014.65 1013.96 1013.25 1012.53 1011.79 1011.04 1010.28 1009.52 1008.79 1008.08 1007.45 1006.91 1006.50 1006.26 1006.20 1006.33 1006.62 1007.03 1007.50 1007.93 1008.22 1008.27 1008.02 1007.43 1006.49 1005.26 1003.83 1002.33 1000.91 999.72 998.89 998.51 998.62 999.22 1000.26 1001.64 1003.24 1004.93
1014.20 1013.48 1012.74 1011.98 1011.21 1010.42 1009.63 1008.84 1008.08 1007.37 1006.74 1006.22 1005.85 1005.67 1005.69 1005.91 1006.29 1006.81 1007.37 1007.91 1008.31 1008.48 1008.37 1007.91 1007.13 1006.06 1004.79 1003.44 1002.15 1001.06 1000.31 999.97 1000.09 1000.67 1001.66 1002.99 1004.53 1006.19
1013.72 1012.97 1012.20 1011.41 1010.62 1009.81 1009.02 1008.23 1007.49 1006.81 1006.22 1005.76 1005.47 1005.36 1005.46 1005.75 1006.21 1006.80 1007.44 1008.05 1008.55 1008.85 1008.89 1008.62 1008.06 1007.23 1006.22 1005.12 1004.07 1003.18 1002.57 1002.31 1002.45 1002.99 1003.89 1005.09 1006.49 1008.00
1013.27 1012.48 1011.68 1010.88 1010.08 1009.29 1008.51 1007.77 1007.09 1006.48 1005.99 1005.62 1005.43 1005.41 1005.58 1005.93 1006.44 1007.06 1007.73 1008.39 1008.95 1009.34 1009.52 1009.45 1009.13 1008.59 1007.89 1007.11 1006.35 1005.71 1005.29 1005.15 1005.33 1005.82 1006.61 1007.65 1008.85 1010.14
1012.88 1012.06 1011.24 1010.43 1009.64 1008.89 1008.17 1007.51 1006.92 1006.43 1006.06 1005.83 1005.75 1005.84 1006.08 1006.48 1007.00 1007.61 1008.26 1008.90 1009.47 1009.91 1010.19 1010.29 1010.19 1009.93 1009.54 1009.09 1008.65 1008.29 1008.09 1008.09 1008.32 1008.78 1009.46 1010.32 1011.30 1012.36
1012.61 1011.75 1010.92 1010.12 1009.36 1008.65 1008.01 1007.45 1006.99 1006.64 1006.42 1006.34 1006.40 1006.59 1006.90 1007.33 1007.84 1008.40 1008.99 1009.56 1010.07 1010.50 1010.83 1011.03 1011.10 1011.08 1010.97 1010.83 1010.69 1010.61 1010.64 1010.79 1011.08 1011.53 1012.12 1012.82 1013.61 1014.44
1012.46 1011.59 1010.76 1009.97 1009.24 1008.58 1008.02 1007.58 1007.25 1007.06 1007.00 1007.07 1007.26 1007.56 1007.93 1008.37 1008.85 1009.33 1009.82 1010.28 1010.70 1011.07 1011.37 1011.62 1011.81 1011.96 1012.08 1012.20 1012.32 1012.49 1012.72 1013.02 1013.39 1013.85 1014.37 1014.96 1015.59 1016.24
1012.44 1011.57 1010.75 1009.98 1009.28 1008.68 1008.21 1007.86 1007.66 1007.61 1007.70 1007.91 1008.22 1008.61 1009.04 1009.48 1009.91 1010.31 1010.69 1011.02 1011.32 1011.59 1011.84 1012.09 1012.34 1012.60 1012.89 1013.19 1013.53 1013.90 1014.30 1014.72 1015.18 1015.66 1016.15 1016.66 1017.18 1017.71
1012.55 1011.70 1010.89 1010.15 1009.49 1008.94 1008.53 1008.27 1008.17 1008.24 1008.44 1008.77 1009.18 1009.63 1010.09 1010.53 1010.92 1011.24 1011.51 1011.73 1011.91 1012.09 1012.28 1012.50 1012.77 1013.10 1013.49 1013.93 1014.41 1014.93 1015.45 1015.98 1016.51 1017.01 1017.50 1017.97 1018.43 1018.89
1012.78 1011.97 1011.20 1010.48 1009.85 1009.35 1008.99 1008.79 1008.76 1008.90 1009.18 1009.57 1010.04 1010.54 1011.02 1011.45 1011.80 1012.07 1012.26 1012.40 1012.50 1012.60 1012.74 1012.94 1013.22 1013.59 1014.04 1014.56 1015.14 1015.74 1016.35 1016.95 1017.52 1018.04 1018.53 1018.98 1019.41 1019.82
1013.12 1012.37 1011.65 1010.97 1010.38 1009.91 1009.58 1009.41 1009.41 1009.58 1009.90 1010.32 1010.81 1011.32 1011.80 1012.21 1012.55 1012.78 1012.94 1013.03 1013.10 1013.18 1013.30 1013.50 1013.79 1014.19 1014.68 1015.25 1015.88 1016.53 1017.17 1017.79 1018.37 1018.90 1019.38 1019.82 1020.22 1020.62
1013.58 1012.90 1012.24 1011.62 1011.06 1010.62 1010.30 1010.14 1010.15 1010.31 1010.61 1011.02 1011.50 1011.99 1012.45 1012.85 1013.17 1013.40 1013.56 1013.65 1013.73 1013.83 1013.98 1014.21 1014.54 1014.97 1015.49 1016.08 1016.72 1017.38 1018.02 1018.63 1019.19 1019.70 1020.15 1020.56 1020.95 1021.32
1014.15 1013.56 1012.96 1012.40 1011.89 1011.46 1011.16 1010.99 1010.97 1011.10 1011.36 1011.72 1012.14 1012.59 1013.02 1013.40 1013.71 1013.95 1014.13 1014.28 1014.41 1014.56 1014.77 1015.06 1015.44 1015.90 1016.45 1017.05 1017.68 1018.31 1018.92 1019.49 1020.01 1020.47 1020.89 1021.26 1021.61 1021.95
1014.84 1014.32 1013.80 1013.29 1012.82 1012.42 1012.12 1011.93 1011.87 1011.95 1012.14 1012.43 1012.78 1013.17 1013.55 1013.90 1014.21 1014.47 1014.69 1014.89 1015.09 1015.33 1015.62 1015.98 1016.41 1016.92 1017.48 1018.08 1018.69 1019.28 1019.84 1020.35 1020.81 1021.21 1021.57 1021.89 1022.21 1022.52
1015.61 1015.16 1014.70 1014.24 1013.81 1013.42 1013.12 1012.91 1012.82 1012.83 1012.95 1013.16 1013.43 1013.74 1014.06 1014.38 1014.68 1014.95 1015.22 1015.48 1015.76 1016.08 1016.45 1016.88 1017.37 1017.90 1018.48 1019.06 1019.63 1020.17 1020.67 1021.12 1021.51 1021.85 1022.16 1022.45 1022.72 1023.00
Thickness
5472 5469 5466 5465 5463 5462 5461 5459 5459 5465 5470 5470 5470 5473 5475 5478 5482 5485 5489 5492 5493 5493 5491 5489 5488 5489 5492 5494 5498 5502 5508 5514 5521 5529 5540 5553 5568 5583
5461 5459 5457 5456 5456 5456 5456 5456 5454 5455 5462 5464 5464 5467 5470 5474 5478 5481 5484 5486 5488 5486 5483 5480 5478 5478 5480 5482 5486 5491 5498 5505 5513 5521 5531 5543 5558 5573
5451 5449 5448 5448 5448 5450 5451 5452 5451 5451 5455 5460 5461 5464 5467 5470 5473 5476 5479 5482 5481 5479 5476 5473 5471 5471 5473 5476 5480 5485 5491 5498 5506 5515 5525 5536 5549 5565
5442 5439 5439 5441 5441 5442 5445 5447 5448 5449 5451 5456 5458 5460 5464 5467 5470 5473 5475 5476 5474 5472 5469 5467 5467 5467 5469 5472 5476 5482 5488 5495 5502 5511 5521 5532 5545 5556
5432 5430 5431 5432 5434 5437 5439 5442 5445 5447 5448 5451 5456 5458 5462 5465 5467 5469 5469 5468 5467 5465 5464 5462 5462 5464 5467 5471 5477 5484 5492 5499 5504 5510 5518 5528 5539 5552
5423 5423 5424 5425 5428 5431 5434 5437 5440 5443 5445 5449 5454 5458 5462 5465 5466 5466 5464 5461 5460 5459 5458 5458 5458 5461 5465 5472 5482 5494 5503 5510 5514 5516 5520 5526 5536 5549
5416 5416 5417 5420 5424 5425 5428 5432 5436 5440 5444 5448 5454 5458 5462 5463 5465 5463 5460 5456 5454 5453 5453 5453 5454 5458 5465 5476 5493 5511 5522 5526 5526 5524 5524 5526 5535 5548
5408 5409 5410 5413 5416 5419 5423 5428 5433 5438 5445 5450 5455 5459 5463 5464 5463 5460 5457 5454 5452 5449 5448 5448 5450 5454 5462 5479 5505 5524 5533 5535 5531 5527 5525 5528 5536 5546
5400 5401 5404 5408 5410 5413 5419 5427 5433 5440 5447 5453 5460 5463 5464 5464 5462 5458 5456 5453 5449 5446 5445 5444 5445 5450 5459 5475 5502 5519 5525 5527 5526 5525 5525 5528 5533 5541
5393 5395 5398 5402 5407 5411 5417 5425 5435 5444 5452 5461 5466 5468 5466 5464 5462 5459 5454 5449 5445 5443 5443 5440 5441 5446 5455 5467 5482 5498 5507 5511 5514 5516 5519 5521 5527 5534
5389 5392 5394 5398 5403 5407 5415 5424 5435 5446 5456 5463 5467 5467 5465 5463 5460 5456 5452 5450 5445 5440 5440 5438 5438 5443 5451 5458 5464 5474 5482 5488 5493 5499 5507 5514 5521 5525
5386 5390 5394 5396 5401 5406 5414 5423 5434 5445 5452 5459 5460 5459 5458 5456 5456 5456 5455 5452 5448 5441 5437 5438 5439 5443 5447 5448 5453 5458 5463 5468 5475 5482 5492 5504 5515 5519
5381 5386 5391 5395 5400 5407 5415 5424 5433 5441 5447 5451 5452 5452 5451 5450 5450 5450 5450 5449 5448 5443 5439 5439 5439 5442 5445 5445 5447 5450 5456 5462 5469 5475 5483 5493 5502 5509
5377 5382 5388 5393 5400 5408 5417 5426 5434 5440 5443 5445 5446 5445 5445 5444 5444 5445 5445 5445 5445 5443 5440 5440 5440 5442 5445 5448 5447 5446 5452 5457 5463 5469 5474 5480 5486 5490
5375 5381 5387 5394 5401 5410 5419 5427 5434 5437 5440 5441 5442 5440 5439 5439 5440 5440 5440 5440 5439 5438 5438 5439 5440 5442 5445 5448 5447 5448 5451 5452 5459 5465 5469 5473 5476 5479
5374 5381 5388 5394 5402 5410 5418 5426 5431 5434 5437 5438 5436 5435 5435 5435 5435 5435 5435 5436 5436 5435 5436 5437 5438 5440 5443 5445 5448 5449 5452 5453 5453 5459 5463 5465 5467 5469
5373 5381 5388 5394 5401 5409 5417 5423 5428 5431 5433 5433 5433 5432 5431 5431 5430 5430 5431 5432 5434 5435 5435 5435 5437 5438 5440 5445 5447 5448 5449 5449 5450 5453 5457 5459 5459 5461
5375 5380 5386 5392 5398 5405 5413 5419 5424 5428 5429 5430 5429 5429 5428 5428 5427 5426 5428 5429 5432 5433 5435 5436 5438 5440 5440 5439 5441 5443 5444 5443 5444 5446 5450 5453 5451 5451
5375 5379 5384 5390 5396 5403 5409 5416 5421 5423 5425 5426 5427 5427 5427 5425 5425 5424 5426 5428 5430 5432 5433 5435 5437 5441 5443 5441 5434 5438 5439 5438 5439 5440 5441 5443 5442 5442
5373 5378 5383 5388 5394 5400 5407 5412 5417 5420 5422 5423 5424 5425 5425 5424 5423 5423 5424 5426 5428 5430 5432 5434 5435 5436 5438 5438 5436 5433 5437 5437 5436 5434 5434 5435 5435 5437
5371 5376 5381 5386 5392 5398 5404 5409 5414 5417 5418 5420 5421 5422 5423 5423 5423 5424 5424 5425 5427 5429 5430 5431 5432 5435 5435 5435 5432 5429 5430 5433 5435 5434 5433 5432 5432 5432
5370 5375 5380 5385 5389 5395 5400 5405 5409 5412 5415 5417 5418 5419 5420 5421 5422 5423 5424 5425 5426 5427 5427 5428 5431 5432 5432 5430 5426 5424 5424 5427 5429 5431 5434 5436 5435 5433
5369 5374 5379 5384 5388 5392 5397 5401 5405 5408 5412 5414 5416 5417 5418 5419 5421 5422 5424 5425 5425 5425 5426 5426 5427 5428 5427 5425 5422 5420 5420 5422 5425 5427 5430 5437 5440 5440